Weather reports worldwide

Advertisment
Cairnwell, United Kingdom (3072): temperature & dewpoint: 01.06.2020 04:00:00 - 07.06.2020 04:00:00 (BST)Cairnwell, United Kingdom (3072): wind speed & gusts: 01.06.2020 04:00:00 - 07.06.2020 04:00:00 (BST)Cairnwell, United Kingdom (3072): wind direction: 01.06.2020 04:00:00 - 07.06.2020 04:00:00 (BST)
Date & Time tt [°C] td [°C] ff [km/h] ff [kn] fx [km/h] fx [kn] dd
07.06.2020 04:00:00 3,2 3,2 - - - - -
07.06.2020 03:00:00 3,3 3,3 - - - - -
07.06.2020 02:00:00 3,4 3,4 - - - - -
07.06.2020 01:00:00 3,3 3,3 - - - - -
07.06.2020 00:00:00 3,2 3,2 - - - - -
06.06.2020 23:00:00 3,4 3,4 - - - - -
06.06.2020 22:00:00 3,8 3,8 - - - - -
06.06.2020 21:00:00 4,0 4,0 - - - - -
06.06.2020 20:00:00 4,7 4,7 - - - - -
06.06.2020 19:00:00 5,4 5,4 - - - - -
06.06.2020 18:00:00 5,8 5,3 - - - - -
06.06.2020 17:00:00 8,3 2,0 - - - - -
06.06.2020 16:00:00 8,3 0,8 - - - - -
06.06.2020 15:00:00 7,8 -0,1 - - - - -
06.06.2020 14:00:00 7,1 5,9 - - - - -
06.06.2020 13:00:00 6,4 5,6 - - - - -
06.06.2020 12:00:00 5,7 5,5 - - - - -
06.06.2020 11:00:00 4,4 4,4 - - - - -
06.06.2020 10:00:00 3,4 3,4 - - - - -
06.06.2020 09:00:00 2,4 2,4 - - - - -
06.06.2020 08:00:00 1,9 1,9 - - - - -
06.06.2020 07:00:00 1,5 1,5 - - - - -
06.06.2020 06:00:00 1,7 1,7 - - - - -
06.06.2020 05:00:00 1,9 1,9 - - - - -
06.06.2020 04:00:00 2,2 2,2 - - - - -
06.06.2020 03:00:00 2,2 2,2 - - - - -
06.06.2020 02:00:00 2,4 2,4 - - - - -
06.06.2020 01:00:00 2,5 2,5 - - - - -
06.06.2020 00:00:00 3,2 3,2 - - - - -
05.06.2020 23:00:00 3,0 3,0 - - - - -
05.06.2020 22:00:00 1,3 1,3 - - - - -
05.06.2020 21:00:00 0,4 0,4 - - - - -
05.06.2020 20:00:00 0,5 0,5 - - - - -
05.06.2020 19:00:00 0,1 0,1 - - - - -
05.06.2020 18:00:00 0,3 0,3 - - - - -
05.06.2020 17:00:00 0,8 0,8 - - - - -
05.06.2020 16:00:00 1,0 0,9 - - - - -
05.06.2020 15:00:00 1,4 1,4 - - - - -
05.06.2020 14:00:00 1,6 1,5 - - - - -
05.06.2020 13:00:00 1,9 1,8 - - - - -
05.06.2020 12:00:00 0,0 0,0 - - - - -
05.06.2020 11:00:00 0,2 0,2 - - - - -
05.06.2020 10:00:00 -0,3 -0,4 - - - - -
05.06.2020 09:00:00 -0,3 -0,9 - - - - -
05.06.2020 08:00:00 -0,8 -1,1 - - - - -
05.06.2020 07:00:00 -0,8 -0,8 - - - - -
05.06.2020 06:00:00 -0,9 -0,9 - - - - -
05.06.2020 05:00:00 -1,0 -1,0 - - - - -
05.06.2020 04:00:00 -1,2 -1,2 - - - - -
05.06.2020 03:00:00 -1,2 -1,4 - - - - -
05.06.2020 02:00:00 -0,8 -0,8 - - - - -
05.06.2020 01:00:00 -0,3 -0,3 - - - - -
05.06.2020 00:00:00 -0,4 -0,4 - - - - -
04.06.2020 23:00:00 0,2 0,2 - - - - -
04.06.2020 22:00:00 0,6 0,6 - - - - -
04.06.2020 21:00:00 1,1 0,4 - - - - -
04.06.2020 20:00:00 1,2 0,5 - - - - -
04.06.2020 19:00:00 1,8 1,4 - - - - -
04.06.2020 18:00:00 1,2 0,9 - - - - -
04.06.2020 17:00:00 2,1 1,6 - - - - -
04.06.2020 16:00:00 2,2 0,2 - - - - -
04.06.2020 15:00:00 4,0 -0,4 - - - - -
04.06.2020 14:00:00 3,0 2,8 - - - - -
04.06.2020 13:00:00 3,3 1,4 - - - - -
04.06.2020 12:00:00 3,3 1,3 - - - - -
04.06.2020 11:00:00 2,3 1,1 - - - - -
04.06.2020 10:00:00 2,2 0,4 - - - - -
04.06.2020 09:00:00 2,6 -0,4 - - - - -
04.06.2020 08:00:00 1,5 -0,6 - - - - -
04.06.2020 07:00:00 1,2 -0,5 - - - - -
04.06.2020 06:00:00 0,4 -0,6 - - - - -
04.06.2020 05:00:00 0,2 0,1 - - - - -
04.06.2020 04:00:00 0,5 0,1 - - - - -
04.06.2020 03:00:00 0,5 0,0 - - - - -
04.06.2020 02:00:00 1,0 0,2 - - - - -
04.06.2020 01:00:00 0,9 0,9 - - - - -
04.06.2020 00:00:00 1,2 0,9 - - - - -
03.06.2020 23:00:00 1,4 0,8 - - - - -
03.06.2020 22:00:00 1,9 0,8 - - - - -
03.06.2020 21:00:00 2,5 2,2 - - - - -
03.06.2020 20:00:00 3,2 2,9 - - - - -
03.06.2020 19:00:00 3,7 3,5 - - - - -
03.06.2020 18:00:00 3,7 3,5 - - - - -
03.06.2020 17:00:00 4,0 3,9 - - - - -
03.06.2020 16:00:00 3,3 3,3 - - - - -
03.06.2020 15:00:00 2,7 2,7 - - - - -
03.06.2020 14:00:00 2,2 2,2 - - - - -
03.06.2020 13:00:00 2,4 2,4 - - - - -
03.06.2020 12:00:00 2,5 2,5 - - - - -
03.06.2020 11:00:00 2,6 2,6 - - - - -
03.06.2020 10:00:00 1,1 1,1 - - - - -
03.06.2020 09:00:00 1,0 1,0 - - - - -
03.06.2020 08:00:00 0,8 0,8 - - - - -
03.06.2020 07:00:00 0,7 0,7 - - - - -
03.06.2020 06:00:00 0,5 0,5 - - - - -
03.06.2020 05:00:00 0,8 0,8 - - - - -
03.06.2020 04:00:00 1,3 1,3 - - - - -
03.06.2020 03:00:00 1,4 1,4 - - - - -
03.06.2020 02:00:00 1,9 1,9 - - - - -
03.06.2020 01:00:00 2,3 2,3 - - - - -
03.06.2020 00:00:00 2,7 2,7 - - - - -
02.06.2020 23:00:00 3,0 3,0 - - - - -
02.06.2020 22:00:00 4,5 4,5 - - - - -
02.06.2020 21:00:00 4,7 4,7 - - - - -
02.06.2020 20:00:00 7,2 7,0 - - - - -
02.06.2020 19:00:00 8,9 8,0 - - - - -
02.06.2020 18:00:00 9,1 7,8 - - - - -
02.06.2020 17:00:00 9,1 7,5 - - - - -
02.06.2020 16:00:00 10,3 7,0 - - - - -
02.06.2020 15:00:00 10,5 6,2 - - - - -
02.06.2020 14:00:00 11,6 4,6 - - - - -
02.06.2020 13:00:00 11,8 2,5 - - - - -
02.06.2020 12:00:00 12,1 3,9 - - - - -
02.06.2020 11:00:00 11,7 4,9 - - - - -
02.06.2020 10:00:00 12,2 5,1 - - - - -
02.06.2020 09:00:00 12,0 4,7 - - - - -
02.06.2020 08:00:00 12,1 4,2 - - - - -
02.06.2020 07:00:00 11,7 2,7 - - - - -
02.06.2020 06:00:00 11,4 5,5 - - - - -
02.06.2020 05:00:00 11,8 6,7 - - - - -
02.06.2020 04:00:00 12,5 6,5 - - - - -
02.06.2020 03:00:00 12,0 6,7 - - - - -
02.06.2020 02:00:00 11,8 6,6 - - - - -
02.06.2020 01:00:00 11,9 5,9 - - - - -
02.06.2020 00:00:00 11,3 4,0 - - - - -
01.06.2020 23:00:00 11,3 4,3 - - - - -
01.06.2020 22:00:00 10,7 3,9 21 11 - - SSW
01.06.2020 21:00:00 11,1 3,2 24 13 - - SSW
01.06.2020 20:00:00 12,4 2,9 28 15 - - S
01.06.2020 19:00:00 12,7 4,2 31 17 - - S
01.06.2020 18:00:00 13,8 4,9 31 17 46 25 S
01.06.2020 17:00:00 14,0 5,3 31 17 48 26 S
01.06.2020 16:00:00 14,7 4,2 28 15 - - SSW
01.06.2020 15:00:00 14,4 4,9 24 13 - - S
01.06.2020 14:00:00 15,1 3,3 21 11 - - SSW
01.06.2020 13:00:00 14,8 0,9 18 10 - - SSE
01.06.2020 12:00:00 14,0 1,8 15 8 - - S
01.06.2020 11:00:00 12,8 2,8 15 8 - - SSW
01.06.2020 10:00:00 12,2 2,5 15 8 - - S
01.06.2020 09:00:00 11,3 4,0 16 9 - - SSW
01.06.2020 08:00:00 10,2 2,4 18 10 - - SSW
01.06.2020 07:00:00 9,8 2,0 21 11 - - SSW
01.06.2020 06:00:00 10,6 1,6 22 12 - - SSW
01.06.2020 05:00:00 10,5 2,5 22 12 - - SSW
01.06.2020 04:00:00 10,1 4,6 22 12 - - SSW

tt = temperature
td = dewpoint
ff = wind speed
fx = gusts
dd = wind direction

Next stations